Tracking 18856 objects as of 12-Dec-2017
HD Live streaming from Space Station
objects crossing your sky now

USA 24

Track USA 24 now!
10-day predictions
USA 24 is classified as:


NORAD ID: 18010
Int'l Code: 1987-043F
Perigee: 472.7 km
Apogee: 1,729.6 km
Inclination: 63.3 °
Period: 107.1 minutes
Semi major axis: 7472 km
RCS: Unknown
Launch date: May 15, 1987
Source: United States (US)
Launch site: AIR FORCE WESTERN TEST RANGE (AFWTR)
aabbcc
Your satellite tracking list
Your tracking list is empty




NASA's NSSDC Master Catalog

Two Line Element Set (TLE):
1 18010U 87043F   16048.74537040 0.00002000  00000-0  35388-3 0    06
2 18010  63.3360 308.7382 0841000  38.0642 321.9358 13.44109041    08
Source of the keplerian elements: McCants